Racecast

Mount Washington

Difficulty:i +3.1% (5000m, the usual distance here) · 267 results · 266 athletes

All 5000m
Rating scale ?

Distances raced here

DistanceDifficultyiResults FirstLast
5000m +3.1% 267 2023-09-09 2023-09-09

Best speed ratings all distances

Boys

#AthleteRatingi TimeDistSchoolDate
1 Carson Eames 128.2 16:30.1 5000m St Johnsbury (VT) 2023-09-09
2 Gunner Currier 126.8 16:41 5000m Mascoma Valley Reg (NH) 2023-09-09
3 Finn Kraft 126.5 16:43.5 5000m Pinkerton Academy (NH) 2023-09-09
4 Emmett Johnson 125.2 16:54 5000m St Johnsbury (VT) 2023-09-09
5 Josiah Conley 122.9 17:13.4 5000m Concord (DE) 2023-09-09
6 Nate Binda 122.8 17:13.9 5000m Pinkerton Academy (NH) 2023-09-09
7 Andrew Thornton-Sherman 122.6 17:15.8 5000m St Johnsbury (VT) 2023-09-09
8 Isaac Lenzini 120.6 17:33 5000m St Johnsbury (VT) 2023-09-09
9 Aiden Dowd 119.5 17:42.4 5000m Pinkerton Academy (NH) 2023-09-09
10 Sean Hayes 117.9 17:56.6 5000m Pinkerton Academy (NH) 2023-09-09
11 Cole Burns 117.5 18:00.6 5000m Nashua North (NH) 2023-09-09
12 Ari Leven 117.1 18:04.4 5000m St Johnsbury (VT) 2023-09-09
13 Joseph Gustavson 117.0 18:05.3 5000m Pinkerton Academy (NH) 2023-09-09
14 Ben Groves 116.4 18:10.8 5000m Hanover (MA) 2023-09-09
15 Noah Daigle 115.7 18:17.4 5000m Pinkerton Academy (NH) 2023-09-09
16 Ben Hourdequin 115.2 18:22.1 5000m Hanover (MA) 2023-09-09
17 Tate Hayman 114.8 18:25.4 5000m Plymouth Regional (NH) 2023-09-09
18 Mychal Reynolds 114.0 18:33.3 5000m Merrimack Valley (NH) 2023-09-09
19 Owen Welch 113.8 18:36 5000m Hanover (MA) 2023-09-09
20 Evan Windrow 113.1 18:42.7 5000m St Johnsbury (VT) 2023-09-09
21 Nathaniel Bernier 112.3 18:50 5000m St Johnsbury (VT) 2023-09-09
22 Ian Mamos 112.1 18:52.3 5000m Concord (DE) 2023-09-09
23 Brennan O'Farrell 112.0 18:53.2 5000m St Johnsbury (VT) 2023-09-09
24 Simon Butka 111.3 19:00.2 5000m Kingswood Reg Senior (NH) 2023-09-09
25 John Thornton-Sherman 110.8 19:06.3 5000m St Johnsbury (VT) 2023-09-09
26 Will Hanaway 110.2 19:11.7 5000m Hanover (MA) 2023-09-09
27 Nandeesh Jain 110.2 19:12.6 5000m Hanover (MA) 2023-09-09
28 Benjamin Geoffroy 110.1 19:13.6 5000m Merrimack Valley (NH) 2023-09-09
29 Trevor Maheu 110.0 19:13.8 5000m Mascoma Valley Reg (NH) 2023-09-09
30 Nicholas Van Citters 109.8 19:16.6 5000m Hanover (MA) 2023-09-09
31 Oliver Conley 109.6 19:18 5000m Concord (DE) 2023-09-09
32 Cody Santomassimo 109.6 19:18.8 5000m Pinkerton Academy (NH) 2023-09-09
33 Bryce Palmer 108.9 19:25.9 5000m Newport (OR) 2023-09-09
34 Nathan Bain 108.3 19:31.9 5000m Merrimack Valley (NH) 2023-09-09
35 Isaac Novosad 107.9 19:36.8 5000m Hanover (MA) 2023-09-09
36 Donovan Van Citters 107.6 19:40.3 5000m Hanover (MA) 2023-09-09
37 Carl Russell 107.1 19:45.1 5000m Mascoma Valley Reg (NH) 2023-09-09
38 Karson Rogers 106.6 19:51.1 5000m Mascoma Valley Reg (NH) 2023-09-09
39 Ross Stephens 106.2 19:55.8 5000m Kennett (PA) 2023-09-09
40 Moses Andrews 104.3 20:17.5 5000m St Johnsbury (VT) 2023-09-09
41 Yaxiel Vazquez 104.2 20:18.9 5000m Nashua North (NH) 2023-09-09
42 Aiden Powell 104.1 20:19.1 5000m Hanover (MA) 2023-09-09
43 Tony Wang 103.2 20:30.1 5000m Merrimack Valley (NH) 2023-09-09
44 Abraham Hankens 102.6 20:37.2 5000m Plymouth Regional (NH) 2023-09-09
45 Ben Newton 102.3 20:41.4 5000m Merrimack Valley (NH) 2023-09-09
46 Grady Steele 101.9 20:45.4 5000m Kingswood Reg Senior (NH) 2023-09-09
47 Sam Martin 101.8 20:47 5000m St Johnsbury (VT) 2023-09-09
48 Noah Glenney 101.5 20:51.5 5000m Hanover (MA) 2023-09-09
49 Elliot Clendenning 101.3 20:53.4 5000m Concord (DE) 2023-09-09
50 Alex Loder 100.4 21:04.6 5000m St Johnsbury (VT) 2023-09-09
51 Aaron McNair 100.1 21:07.9 5000m Nashua North (NH) 2023-09-09
52 Hassan Osserian 99.9 21:11 5000m Plymouth Regional (NH) 2023-09-09
53 Jeremiah Watson 99.9 21:11.1 5000m St Johnsbury (VT) 2023-09-09
54 Malcolm Davenport 99.8 21:11.5 5000m Kennett (PA) 2023-09-09
55 Evan Thurston 99.6 21:14.7 5000m Kingswood Reg Senior (NH) 2023-09-09
56 William Corbett 99.1 21:21.2 5000m Concord (DE) 2023-09-09
57 Graeme Burtis 99.1 21:21.7 5000m Plymouth Regional (NH) 2023-09-09
58 Cadence Kenney 99.0 21:22.1 5000m Kennett (PA) 2023-09-09
59 Aiden Schuette Simon 98.9 21:23.6 5000m Kingswood Reg Senior (NH) 2023-09-09
60 Nathaniel Picconi-Eakin 98.8 21:24.8 5000m Hanover (MA) 2023-09-09

View all →

Girls

#AthleteRatingi TimeDistSchoolDate
1 Elli Englund 123.5 20:41.5 5000m Plymouth Regional (NH) 2023-09-09
2 Millie Larrick 118.1 21:39.2 5000m Hanover (MA) 2023-09-09
3 Willa Kantrowitz 115.4 22:09.2 5000m St Johnsbury (VT) 2023-09-09
4 Anna Boyer 113.5 22:32.1 5000m Plymouth Regional (NH) 2023-09-09
5 Emerald Briggs 113.1 22:36.7 5000m Newfound Regional (NH) 2023-09-09
6 Bennett Crance 112.8 22:40.2 5000m St Johnsbury (VT) 2023-09-09
7 Kelsey Maine 112.4 22:44.2 5000m Plymouth Regional (NH) 2023-09-09
8 Moser Lily 111.2 22:59.2 5000m Merrimack Valley (NH) 2023-09-09
9 Mikyla Skulc 110.1 25:20.4 5000m Holy Family Academy (NH) 2023-09-09
10 Molly DellaValla 109.8 23:17 5000m Kennett (PA) 2023-09-09
11 Skylar Spiro 109.4 23:22.7 5000m Hanover (MA) 2023-09-09
12 Madison Geddes 109.3 23:23.1 5000m Merrimack Valley (NH) 2023-09-09
13 Maria Williams 109.3 25:32 5000m Holy Family Academy (NH) 2023-09-09
14 Siri Jolliffe 108.9 23:29.1 5000m St Johnsbury (VT) 2023-09-09
15 Elleanor Ronci 108.8 23:30.1 5000m Plymouth Regional (NH) 2023-09-09
16 Aria Deeb 108.0 23:40.8 5000m Hanover (MA) 2023-09-09
17 Eve McLaughlin 107.9 23:42.2 5000m Hanover (MA) 2023-09-09
18 Piper Lopashanski 107.2 23:50.6 5000m Kennett (PA) 2023-09-09
19 Lilly Laskowski 107.1 23:52.5 5000m St Johnsbury (VT) 2023-09-09
20 Ava Purdy 107.0 23:54.2 5000m St Johnsbury (VT) 2023-09-09
21 Ariella (Ari) Hirschler 107.0 23:54.2 5000m Hanover (MA) 2023-09-09
22 Aila Butler 106.9 23:54.8 5000m Hanover (MA) 2023-09-09
23 Ali McBride 106.5 24:00.7 5000m Hanover (MA) 2023-09-09
24 Emersen Mitchell 106.0 24:07.6 5000m St Johnsbury (VT) 2023-09-09
25 Isabella Ford 105.8 24:10.4 5000m White Mountains (NH) 2023-09-09
26 Natalie Wainwright 105.7 24:11.2 5000m Hanover (MA) 2023-09-09
27 Heidi Davis 105.1 24:20.1 5000m Hanover (MA) 2023-09-09
28 Maddie Blanchard 105.0 24:21.2 5000m St Johnsbury (VT) 2023-09-09
29 Alice Bell 104.6 24:26.3 5000m Hanover (MA) 2023-09-09
30 Macy Moore 104.2 24:32.5 5000m St Johnsbury (VT) 2023-09-09
31 Mackenzie Foss 102.1 25:02.9 5000m White Mountains (NH) 2023-09-09
32 Spack Sydney 101.9 25:05.7 5000m Merrimack Valley (NH) 2023-09-09
33 Jeweliana Gorham 101.8 25:06.5 5000m Kennett (PA) 2023-09-09
34 Ayla Wager 101.8 25:07.2 5000m Hanover (MA) 2023-09-09
35 Leigh Eggleton 100.7 25:23.4 5000m Hanover (MA) 2023-09-09
36 Olivia Liu 100.6 25:24.4 5000m Hanover (MA) 2023-09-09
37 Xindi Thomas 100.5 25:26.6 5000m Plymouth Regional (NH) 2023-09-09
38 Clare Stephenson 100.5 25:26.8 5000m St Johnsbury (VT) 2023-09-09
39 Stephanie Kendzierski 100.3 25:29.8 5000m Kennett (PA) 2023-09-09
40 Kendra Davidson 99.5 25:41.4 5000m Merrimack Valley (NH) 2023-09-09
41 Nia Lajoie 98.3 25:59.6 5000m Kennett (PA) 2023-09-09
42 Cote Keira 97.6 26:11.5 5000m Merrimack Valley (NH) 2023-09-09
43 Sophie Garlick-Drake 97.1 26:19.2 5000m Newfound Regional (NH) 2023-09-09
44 Josie Halle 97.1 26:19.6 5000m Newfound Regional (NH) 2023-09-09
45 Eva Simpson 96.9 26:22.3 5000m Hanover (MA) 2023-09-09
46 Zoey Cusac 96.4 26:31.4 5000m St Johnsbury (VT) 2023-09-09
47 Pearl Aeberhard 95.9 26:39.1 5000m St Johnsbury (VT) 2023-09-09
48 Anna Healey 95.8 26:40.6 5000m Hanover (MA) 2023-09-09
49 Lynch Tessa 95.0 26:54.9 5000m Merrimack Valley (NH) 2023-09-09
50 Ellis Pietroniro 94.8 26:57.3 5000m Plymouth Regional (NH) 2023-09-09
51 Grace Yannelli 94.5 27:02.5 5000m Kennett (PA) 2023-09-09
52 Abigail Gerhardt 94.2 27:07.5 5000m St Johnsbury (VT) 2023-09-09
53 Violet Towers 93.9 27:12.9 5000m Plymouth Regional (NH) 2023-09-09
54 Isa LaPlume 93.6 27:19 5000m Newfound Regional (NH) 2023-09-09
55 Willow Clifford 93.0 27:28.5 5000m Hanover (MA) 2023-09-09
56 Brynn Waring 91.7 27:52.9 5000m St Johnsbury (VT) 2023-09-09
57 Jenna Burnell 91.3 27:59.4 5000m Kennett (PA) 2023-09-09
58 Sage Freeman 90.4 28:16.8 5000m Hanover (MA) 2023-09-09
59 Naomi Koren 88.9 28:45.9 5000m Plymouth Regional (NH) 2023-09-09
60 Reagan Sutherland 88.6 28:50.8 5000m Plymouth Regional (NH) 2023-09-09

View all →

Best team performances by rating top-5 average rating, one race, all distances

Boys

#SchoolTop-5 avg DistMeetDate
1 St Johnsbury (VT) 122.7 5000m Paul Letarte Race at Great Glen 2023-09-09
2 Pinkerton Academy (NH) 120.7 5000m Paul Letarte Race at Great Glen 2023-09-09
3 Hanover (MA) 113.1 5000m Paul Letarte Race at Great Glen 2023-09-09
4 Merrimack Valley (NH) 107.6 5000m Paul Letarte Race at Great Glen 2023-09-09
5 Kingswood Reg Senior (NH) 101.0 5000m Paul Letarte Race at Great Glen 2023-09-09
6 Concord (DE) 96.7 5000m Paul Letarte Race at Great Glen 2023-09-09
7 Nashua North (NH) 90.2 5000m Paul Letarte Race at Great Glen 2023-09-09

View all →

Girls

#SchoolTop-5 avg DistMeetDate
1 Hanover (MA) 109.5 5000m Paul Letarte Race at Great Glen 2023-09-09
2 St Johnsbury (VT) 109.2 5000m Paul Letarte Race at Great Glen 2023-09-09
3 Plymouth Regional (NH) 105.6 5000m Paul Letarte Race at Great Glen 2023-09-09
4 Merrimack Valley (NH) 103.9 5000m Paul Letarte Race at Great Glen 2023-09-09
5 Kennett (PA) 103.5 5000m Paul Letarte Race at Great Glen 2023-09-09

View all →

Meets held here all distances

MeetLast heldDistanceResults
Paul Letarte Race at Great Glen 2023-09-09 5000 267

View all →